QPF
0.00 0.00 0.01 0.04 0.09 0.07 0.04 0.03 0.02 0.01 0.01 0.01 0.01 0.03 0.02 0.03 0.05 0.08 0.06 0.05 0.05 0.05 0.06 0.06 0.07 0.07 0.08 0.10 0.09 0.09 0.08 0.08 0.09 0.09 0.11 0.12 0.12 0.12 0.11 0.11 0.12 0.14 0.13 0.12 0.12 0.13 0.15 0.17 0.16
0.00 0.00 0.01 0.04 0.07 0.05 0.04 0.02 0.01 0.00 0.00 0.01 0.01 0.01 0.01 0.02 0.02 0.05 0.06 0.06 0.05 0.05 0.05 0.05 0.07 0.08 0.07 0.09 0.11 0.09 0.08 0.09 0.09 0.10 0.11 0.14 0.14 0.12 0.12 0.11 0.13 0.12 0.09 0.11 0.14 0.15 0.16 0.15 0.15
0.00 0.00 0.01 0.03 0.02 0.02 0.03 0.01 0.00 0.00 0.00 0.00 0.01 0.01 0.02 0.04 0.03 0.04 0.04 0.05 0.05 0.05 0.04 0.04 0.06 0.08 0.06 0.08 0.11 0.09 0.08 0.09 0.10 0.10 0.11 0.12 0.12 0.12 0.11 0.15 0.16 0.13 0.13 0.15 0.17 0.15 0.15 0.14 0.15
0.01 0.01 0.01 0.01 0.00 0.01 0.01 0.01 0.00 0.00 0.00 0.00 0.00 0.01 0.03 0.04 0.04 0.04 0.03 0.05 0.04 0.04 0.03 0.03 0.06 0.08 0.08 0.10 0.10 0.08 0.07 0.10 0.10 0.10 0.11 0.13 0.13 0.14 0.12 0.13 0.13 0.13 0.15 0.14 0.14 0.12 0.12 0.13 0.15
0.01 0.01 0.01 0.00 0.00 0.01 0.00 0.00 0.00 0.00 0.00 0.00 0.00 0.01 0.03 0.04 0.04 0.03 0.03 0.04 0.03 0.03 0.03 0.04 0.05 0.06 0.08 0.11 0.12 0.09 0.07 0.09 0.11 0.10 0.10 0.13 0.14 0.13 0.09 0.09 0.10 0.10 0.10 0.09 0.10 0.14 0.15 0.16 0.20
0.04 0.03 0.01 0.00 0.00 0.00 0.00 0.00 0.00 0.00 0.00 0.00 0.00 0.01 0.05 0.05 0.04 0.03 0.02 0.03 0.03 0.05 0.05 0.06 0.06 0.07 0.09 0.14 0.16 0.12 0.08 0.10 0.11 0.10 0.10 0.11 0.11 0.09 0.07 0.07 0.07 0.07 0.08 0.08 0.09 0.16 0.17 0.19 0.24
0.01 0.02 0.01 0.00 0.00 0.00 0.00 0.00 0.00 0.00 0.00 0.00 0.00 0.02 0.08 0.05 0.03 0.03 0.03 0.05 0.06 0.07 0.09 0.10 0.09 0.10 0.13 0.16 0.18 0.15 0.12 0.11 0.12 0.11 0.10 0.13 0.14 0.08 0.06 0.05 0.06 0.06 0.07 0.08 0.10 0.16 0.18 0.20 0.24
0.01 0.01 0.00 0.00 0.00 0.00 0.00 0.00 0.00 0.00 0.00 0.00 0.00 0.01 0.04 0.04 0.02 0.02 0.02 0.03 0.05 0.06 0.05 0.07 0.07 0.06 0.07 0.10 0.11 0.11 0.12 0.12 0.14 0.13 0.15 0.19 0.14 0.07 0.05 0.04 0.04 0.04 0.06 0.08 0.07 0.11 0.15 0.17 0.19
0.00 0.00 0.00 0.00 0.00 0.00 0.00 0.00 0.00 0.00 0.00 0.00 0.00 0.00 0.00 0.01 0.01 0.02 0.03 0.03 0.04 0.04 0.03 0.03 0.02 0.02 0.04 0.05 0.05 0.07 0.08 0.08 0.09 0.12 0.13 0.14 0.10 0.08 0.07 0.04 0.04 0.05 0.08 0.08 0.07 0.07 0.07 0.10 0.14
0.00 0.00 0.00 0.00 0.00 0.00 0.00 0.00 0.00 0.00 0.00 0.00 0.00 0.00 0.00 0.00 0.01 0.02 0.04 0.05 0.06 0.04 0.03 0.02 0.02 0.01 0.02 0.04 0.06 0.10 0.10 0.09 0.10 0.10 0.12 0.15 0.11 0.10 0.07 0.05 0.04 0.03 0.06 0.07 0.06 0.07 0.05 0.08 0.14
0.00 0.00 0.00 0.00 0.00 0.00 0.00 0.00 0.00 0.00 0.00 0.00 0.00 0.00 0.00 0.00 0.01 0.03 0.04 0.05 0.05 0.03 0.04 0.03 0.02 0.01 0.02 0.05 0.08 0.11 0.12 0.10 0.07 0.08 0.13 0.13 0.12 0.08 0.07 0.08 0.06 0.05 0.06 0.07 0.06 0.06 0.08 0.10 0.17
0.00 0.00 0.00 0.00 0.00 0.00 0.00 0.00 0.00 0.00 0.00 0.00 0.00 0.00 0.00 0.00 0.01 0.04 0.06 0.03 0.05 0.06 0.05 0.05 0.04 0.03 0.03 0.03 0.05 0.07 0.07 0.07 0.06 0.08 0.08 0.08 0.11 0.10 0.10 0.09 0.10 0.08 0.09 0.09 0.08 0.09 0.10 0.13 0.15
0.00 0.00 0.00 0.00 0.00 0.00 0.00 0.00 0.00 0.00 0.00 0.00 0.00 0.00 0.00 0.00 0.03 0.12 0.06 0.04 0.05 0.07 0.08 0.06 0.05 0.04 0.04 0.05 0.06 0.04 0.04 0.04 0.04 0.05 0.05 0.06 0.08 0.09 0.09 0.09 0.12 0.11 0.10 0.10 0.12 0.11 0.12 0.15 0.15
0.00 0.00 0.00 0.00 0.00 0.00 0.00 0.00 0.00 0.00 0.00 0.00 0.00 0.00 0.00 0.01 0.02 0.09 0.07 0.04 0.04 0.05 0.06 0.05 0.05 0.05 0.05 0.05 0.04 0.03 0.02 0.03 0.03 0.03 0.03 0.04 0.06 0.09 0.07 0.08 0.09 0.11 0.13 0.12 0.12 0.11 0.13 0.15 0.13
0.00 0.00 0.00 0.00 0.00 0.00 0.00 0.03 0.03 0.00 0.00 0.00 0.00 0.00 0.00 0.01 0.01 0.02 0.03 0.05 0.04 0.05 0.04 0.04 0.04 0.04 0.05 0.05 0.04 0.03 0.03 0.02 0.03 0.03 0.03 0.03 0.04 0.07 0.07 0.08 0.08 0.11 0.12 0.13 0.12 0.12 0.13 0.13 0.11
0.01 0.01 0.01 0.01 0.00 0.00 0.01 0.03 0.01 0.00 0.00 0.00 0.00 0.00 0.00 0.01 0.01 0.01 0.01 0.03 0.03 0.03 0.03 0.03 0.03 0.03 0.03 0.05 0.05 0.04 0.04 0.04 0.04 0.04 0.04 0.03 0.03 0.04 0.06 0.06 0.07 0.09 0.09 0.09 0.10 0.12 0.12 0.13 0.12
0.01 0.01 0.01 0.01 0.00 0.00 0.01 0.01 0.00 0.00 0.00 0.00 0.00 0.00 0.00 0.00 0.00 0.00 0.01 0.01 0.01 0.01 0.02 0.03 0.04 0.05 0.06 0.07 0.06 0.05 0.08 0.08 0.05 0.05 0.05 0.04 0.02 0.02 0.06 0.07 0.08 0.07 0.08 0.08 0.07 0.11 0.12 0.14 0.13
0.00 0.01 0.00 0.01 0.00 0.00 0.00 0.01 0.01 0.00 0.00 0.00 0.00 0.00 0.00 0.00 0.00 0.00 0.00 0.00 0.01 0.01 0.02 0.02 0.03 0.04 0.04 0.06 0.08 0.08 0.08 0.08 0.06 0.06 0.06 0.05 0.04 0.03 0.07 0.10 0.08 0.06 0.07 0.08 0.08 0.11 0.11 0.12 0.12
0.00 0.00 0.00 0.00 0.00 0.00 0.00 0.00 0.01 0.00 0.00 0.00 0.00 0.00 0.00 0.00 0.00 0.00 0.00 0.00 0.00 0.01 0.02 0.03 0.04 0.03 0.05 0.08 0.08 0.08 0.08 0.09 0.08 0.07 0.05 0.05 0.05 0.05 0.08 0.09 0.09 0.08 0.07 0.07 0.07 0.10 0.10 0.09 0.10
0.00 0.00 0.00 0.00 0.00 0.00 0.00 0.00 0.00 0.00 0.00 0.00 0.00 0.00 0.00 0.00 0.00 0.00 0.00 0.00 0.00 0.00 0.01 0.02 0.03 0.03 0.03 0.05 0.07 0.07 0.07 0.07 0.07 0.07 0.07 0.04 0.04 0.04 0.06 0.09 0.10 0.08 0.09 0.08 0.08 0.09 0.09 0.08 0.08
0.00 0.00 0.00 0.00 0.00 0.00 0.01 0.01 0.01 0.01 0.00 0.00 0.00 0.00 0.00 0.00 0.00 0.00 0.00 0.00 0.00 0.01 0.00 0.01 0.02 0.02 0.03 0.04 0.05 0.07 0.07 0.06 0.07 0.07 0.07 0.04 0.03 0.03 0.05 0.07 0.08 0.08 0.09 0.10 0.08 0.08 0.09 0.09 0.09
0.00 0.00 0.00 0.00 0.00 0.01 0.01 0.03 0.03 0.01 0.00 0.00 0.00 0.00 0.00 0.00 0.00 0.00 0.00 0.00 0.00 0.00 0.00 0.00 0.01 0.02 0.02 0.02 0.03 0.05 0.05 0.06 0.07 0.06 0.07 0.05 0.03 0.02 0.03 0.04 0.06 0.07 0.09 0.11 0.09 0.10 0.12 0.13 0.12
0.00 0.00 0.00 0.00 0.01 0.02 0.01 0.03 0.03 0.01 0.01 0.01 0.01 0.00 0.00 0.00 0.00 0.00 0.00 0.00 0.00 0.00 0.00 0.01 0.02 0.02 0.02 0.01 0.03 0.04 0.04 0.05 0.06 0.06 0.08 0.06 0.04 0.03 0.02 0.02 0.05 0.07 0.09 0.09 0.10 0.12 0.12 0.12 0.12
0.00 0.00 0.00 0.00 0.02 0.03 0.01 0.01 0.01 0.03 0.04 0.05 0.02 0.00 0.00 0.00 0.00 0.00 0.00 0.00 0.00 0.00 0.00 0.01 0.02 0.03 0.03 0.03 0.03 0.03 0.04 0.05 0.07 0.08 0.08 0.08 0.06 0.05 0.04 0.04 0.05 0.07 0.08 0.08 0.09 0.09 0.10 0.10 0.11
0.00 0.00 0.01 0.01 0.03 0.02 0.00 0.01 0.02 0.02 0.03 0.02 0.01 0.00 0.00 0.00 0.00 0.00 0.00 0.00 0.00 0.01 0.01 0.02 0.03 0.03 0.04 0.04 0.03 0.03 0.04 0.05 0.05 0.06 0.07 0.07 0.06 0.05 0.05 0.05 0.07 0.07 0.07 0.06 0.07 0.08 0.09 0.09 0.09
0.00 0.00 0.01 0.03 0.03 0.03 0.03 0.02 0.01 0.01 0.02 0.02 0.01 0.00 0.00 0.00 0.00 0.00 0.01 0.01 0.01 0.01 0.01 0.01 0.02 0.03 0.03 0.04 0.04 0.04 0.04 0.05 0.04 0.05 0.05 0.05 0.04 0.04 0.04 0.05 0.05 0.05 0.04 0.04 0.06 0.06 0.07 0.07 0.07
0.00 0.00 0.00 0.02 0.02 0.02 0.02 0.03 0.03 0.01 0.01 0.00 0.01 0.01 0.00 0.00 0.00 0.00 0.01 0.01 0.01 0.02 0.05 0.03 0.01 0.02 0.02 0.02 0.03 0.04 0.03 0.03 0.03 0.03 0.03 0.03 0.04 0.03 0.05 0.06 0.06 0.06 0.04 0.04 0.04 0.06 0.06 0.07 0.06
0.00 0.00 0.00 0.01 0.01 0.02 0.01 0.02 0.04 0.03 0.01 0.00 0.00 0.01 0.01 0.00 0.00 0.00 0.01 0.01 0.02 0.05 0.13 0.08 0.02 0.02 0.02 0.01 0.01 0.02 0.03 0.02 0.02 0.02 0.02 0.02 0.03 0.03 0.05 0.06 0.06 0.06 0.04 0.03 0.04 0.04 0.06 0.07 0.07
0.00 0.00 0.00 0.00 0.00 0.01 0.02 0.04 0.06 0.06 0.02 0.00 0.01 0.01 0.01 0.00 0.00 0.01 0.02 0.02 0.02 0.04 0.08 0.04 0.02 0.02 0.01 0.01 0.02 0.03 0.03 0.02 0.02 0.02 0.01 0.02 0.03 0.04 0.05 0.06 0.05 0.04 0.04 0.04 0.04 0.05 0.05 0.05 0.06
0.00 0.00 0.00 0.00 0.00 0.00 0.01 0.02 0.01 0.02 0.00 0.00 0.00 0.00 0.00 0.00 0.01 0.01 0.01 0.01 0.01 0.01 0.01 0.02 0.02 0.02 0.02 0.02 0.03 0.03 0.02 0.02 0.02 0.02 0.02 0.02 0.03 0.03 0.04 0.04 0.03 0.03 0.04 0.04 0.04 0.03 0.04 0.04 0.04
MSLP
999.11 1000.08 1001.34 1002.70 1004.00 1005.07 1005.81 1006.19 1006.25 1006.11 1005.89 1005.73 1005.71 1005.87 1006.18 1006.58 1007.02 1007.41 1007.73 1007.98 1008.18 1008.37 1008.58 1008.82 1009.08 1009.34 1009.55 1009.70 1009.78 1009.80 1009.82 1009.88 1010.03 1010.30 1010.68 1011.15 1011.66 1012.15 1012.59 1012.94 1013.22 1013.43 1013.61 1013.79 1014.00 1014.22 1014.47 1014.70 1014.90
999.40 1000.51 1001.86 1003.29 1004.61 1005.66 1006.34 1006.66 1006.64 1006.40 1006.09 1005.82 1005.69 1005.72 1005.91 1006.20 1006.54 1006.88 1007.20 1007.50 1007.80 1008.12 1008.49 1008.89 1009.29 1009.66 1009.95 1010.14 1010.22 1010.24 1010.23 1010.26 1010.39 1010.63 1011.00 1011.45 1011.93 1012.40 1012.82 1013.15 1013.42 1013.64 1013.85 1014.07 1014.30 1014.56 1014.81 1015.02 1015.19
999.80 1000.99 1002.39 1003.81 1005.09 1006.09 1006.73 1007.00 1006.96 1006.70 1006.38 1006.08 1005.88 1005.83 1005.90 1006.06 1006.27 1006.51 1006.76 1007.05 1007.39 1007.81 1008.31 1008.86 1009.42 1009.91 1010.31 1010.56 1010.69 1010.71 1010.70 1010.72 1010.82 1011.04 1011.36 1011.75 1012.18 1012.59 1012.95 1013.26 1013.51 1013.75 1013.99 1014.26 1014.56 1014.87 1015.14 1015.36 1015.49
1000.23 1001.45 1002.81 1004.17 1005.37 1006.30 1006.89 1007.15 1007.14 1006.94 1006.67 1006.42 1006.24 1006.14 1006.12 1006.16 1006.22 1006.32 1006.47 1006.70 1007.04 1007.51 1008.10 1008.77 1009.46 1010.08 1010.58 1010.92 1011.10 1011.17 1011.18 1011.21 1011.30 1011.48 1011.75 1012.08 1012.43 1012.76 1013.06 1013.31 1013.54 1013.80 1014.09 1014.43 1014.80 1015.17 1015.49 1015.72 1015.83
1000.63 1001.80 1003.06 1004.30 1005.38 1006.22 1006.77 1007.06 1007.12 1007.05 1006.91 1006.78 1006.67 1006.59 1006.53 1006.47 1006.40 1006.36 1006.38 1006.51 1006.81 1007.29 1007.93 1008.67 1009.45 1010.17 1010.75 1011.17 1011.42 1011.54 1011.60 1011.65 1011.74 1011.91 1012.15 1012.42 1012.70 1012.95 1013.17 1013.37 1013.58 1013.85 1014.18 1014.59 1015.04 1015.48 1015.86 1016.10 1016.20
1000.90 1001.97 1003.09 1004.16 1005.10 1005.84 1006.36 1006.69 1006.88 1006.98 1007.03 1007.08 1007.11 1007.11 1007.06 1006.94 1006.78 1006.61 1006.51 1006.55 1006.78 1007.22 1007.85 1008.61 1009.42 1010.18 1010.82 1011.29 1011.59 1011.77 1011.87 1011.97 1012.10 1012.28 1012.50 1012.74 1012.97 1013.16 1013.31 1013.47 1013.66 1013.93 1014.30 1014.77 1015.29 1015.79 1016.21 1016.48 1016.58
1001.02 1001.94 1002.88 1003.77 1004.56 1005.20 1005.71 1006.11 1006.44 1006.73 1007.01 1007.27 1007.48 1007.61 1007.62 1007.50 1007.30 1007.06 1006.87 1006.82 1006.97 1007.35 1007.93 1008.65 1009.43 1010.17 1010.80 1011.27 1011.60 1011.81 1011.96 1012.11 1012.30 1012.52 1012.77 1013.01 1013.21 1013.37 1013.49 1013.61 1013.79 1014.06 1014.46 1014.96 1015.53 1016.08 1016.53 1016.81 1016.90
1000.98 1001.74 1002.50 1003.22 1003.86 1004.42 1004.92 1005.39 1005.87 1006.36 1006.87 1007.35 1007.76 1008.03 1008.14 1008.08 1007.89 1007.62 1007.40 1007.29 1007.38 1007.68 1008.19 1008.83 1009.53 1010.18 1010.74 1011.17 1011.47 1011.69 1011.88 1012.08 1012.32 1012.60 1012.90 1013.17 1013.39 1013.55 1013.66 1013.77 1013.94 1014.22 1014.62 1015.14 1015.73 1016.29 1016.75 1017.03 1017.11
1000.85 1001.46 1002.06 1002.61 1003.13 1003.62 1004.12 1004.66 1005.27 1005.94 1006.64 1007.32 1007.91 1008.34 1008.57 1008.60 1008.47 1008.24 1008.02 1007.90 1007.95 1008.19 1008.61 1009.14 1009.72 1010.26 1010.70 1011.04 1011.29 1011.48 1011.67 1011.90 1012.19 1012.54 1012.89 1013.22 1013.48 1013.67 1013.81 1013.93 1014.10 1014.37 1014.77 1015.28 1015.86 1016.41 1016.86 1017.12 1017.18
1000.72 1001.21 1001.66 1002.09 1002.51 1002.95 1003.45 1004.04 1004.75 1005.55 1006.40 1007.23 1007.97 1008.53 1008.88 1009.02 1008.97 1008.81 1008.65 1008.55 1008.60 1008.80 1009.14 1009.57 1010.02 1010.42 1010.73 1010.95 1011.11 1011.24 1011.41 1011.65 1011.98 1012.37 1012.78 1013.17 1013.49 1013.73 1013.90 1014.05 1014.23 1014.50 1014.88 1015.37 1015.90 1016.41 1016.82 1017.05 1017.08
1000.67 1001.07 1001.43 1001.76 1002.11 1002.51 1003.01 1003.64 1004.40 1005.27 1006.21 1007.13 1007.95 1008.61 1009.05 1009.29 1009.34 1009.28 1009.20 1009.16 1009.23 1009.41 1009.70 1010.04 1010.37 1010.65 1010.83 1010.94 1011.00 1011.07 1011.20 1011.42 1011.75 1012.17 1012.62 1013.05 1013.42 1013.71 1013.94 1014.12 1014.32 1014.59 1014.95 1015.38 1015.86 1016.32 1016.67 1016.85 1016.85
1000.79 1001.13 1001.42 1001.69 1001.99 1002.36 1002.85 1003.48 1004.26 1005.15 1006.11 1007.05 1007.90 1008.61 1009.11 1009.43 1009.57 1009.61 1009.61 1009.65 1009.75 1009.95 1010.21 1010.49 1010.74 1010.91 1011.01 1011.03 1011.01 1011.02 1011.10 1011.29 1011.60 1012.01 1012.46 1012.92 1013.32 1013.66 1013.92 1014.14 1014.37 1014.64 1014.97 1015.36 1015.77 1016.15 1016.43 1016.56 1016.53
1001.11 1001.40 1001.64 1001.87 1002.13 1002.48 1002.95 1003.56 1004.32 1005.19 1006.11 1007.03 1007.86 1008.57 1009.10 1009.46 1009.67 1009.79 1009.87 1009.98 1010.13 1010.33 1010.58 1010.83 1011.03 1011.16 1011.21 1011.18 1011.13 1011.10 1011.14 1011.29 1011.56 1011.93 1012.36 1012.81 1013.22 1013.58 1013.88 1014.13 1014.38 1014.65 1014.96 1015.30 1015.65 1015.95 1016.16 1016.24 1016.18
1001.60 1001.84 1002.03 1002.22 1002.45 1002.78 1003.22 1003.81 1004.52 1005.34 1006.20 1007.06 1007.85 1008.52 1009.05 1009.44 1009.70 1009.87 1010.01 1010.15 1010.32 1010.54 1010.78 1011.02 1011.21 1011.33 1011.38 1011.36 1011.32 1011.29 1011.31 1011.43 1011.65 1011.97 1012.35 1012.75 1013.14 1013.50 1013.82 1014.10 1014.37 1014.64 1014.94 1015.24 1015.53 1015.77 1015.92 1015.95 1015.86
1002.16 1002.33 1002.46 1002.61 1002.82 1003.12 1003.55 1004.10 1004.77 1005.53 1006.33 1007.12 1007.85 1008.49 1009.02 1009.41 1009.70 1009.90 1010.06 1010.22 1010.39 1010.59 1010.82 1011.04 1011.24 1011.39 1011.48 1011.52 1011.52 1011.53 1011.57 1011.67 1011.85 1012.10 1012.41 1012.74 1013.09 1013.43 1013.74 1014.04 1014.33 1014.62 1014.90 1015.18 1015.43 1015.63 1015.74 1015.74 1015.63
1002.67 1002.75 1002.82 1002.92 1003.11 1003.40 1003.82 1004.35 1004.98 1005.68 1006.42 1007.16 1007.86 1008.48 1009.00 1009.41 1009.72 1009.94 1010.11 1010.26 1010.40 1010.56 1010.74 1010.94 1011.14 1011.33 1011.48 1011.60 1011.69 1011.77 1011.85 1011.95 1012.10 1012.28 1012.51 1012.77 1013.06 1013.35 1013.65 1013.95 1014.26 1014.56 1014.86 1015.13 1015.37 1015.54 1015.63 1015.62 1015.53
1003.00 1002.98 1002.99 1003.06 1003.24 1003.54 1003.96 1004.48 1005.08 1005.75 1006.44 1007.14 1007.82 1008.44 1008.98 1009.43 1009.78 1010.03 1010.20 1010.32 1010.42 1010.52 1010.64 1010.80 1010.98 1011.19 1011.41 1011.62 1011.81 1011.97 1012.11 1012.23 1012.36 1012.49 1012.64 1012.81 1013.02 1013.27 1013.54 1013.84 1014.16 1014.48 1014.79 1015.08 1015.31 1015.49 1015.58 1015.60 1015.53
1003.09 1002.98 1002.94 1003.02 1003.21 1003.54 1003.97 1004.49 1005.07 1005.70 1006.36 1007.03 1007.70 1008.34 1008.92 1009.43 1009.84 1010.14 1010.33 1010.44 1010.50 1010.53 1010.58 1010.68 1010.83 1011.05 1011.31 1011.60 1011.88 1012.12 1012.33 1012.48 1012.59 1012.67 1012.75 1012.85 1012.98 1013.17 1013.41 1013.70 1014.02 1014.36 1014.70 1015.00 1015.26 1015.46 1015.58 1015.64 1015.62
1002.91 1002.76 1002.73 1002.84 1003.09 1003.47 1003.93 1004.45 1005.00 1005.58 1006.18 1006.81 1007.46 1008.12 1008.76 1009.35 1009.85 1010.23 1010.48 1010.61 1010.64 1010.63 1010.62 1010.65 1010.77 1010.97 1011.25 1011.58 1011.93 1012.25 1012.50 1012.68 1012.78 1012.83 1012.85 1012.87 1012.94 1013.07 1013.27 1013.54 1013.87 1014.22 1014.57 1014.90 1015.19 1015.42 1015.59 1015.70 1015.75
1002.51 1002.39 1002.44 1002.65 1003.01 1003.46 1003.96 1004.47 1004.96 1005.45 1005.95 1006.50 1007.09 1007.74 1008.42 1009.09 1009.70 1010.20 1010.55 1010.75 1010.82 1010.80 1010.76 1010.74 1010.82 1010.99 1011.27 1011.62 1012.01 1012.36 1012.66 1012.85 1012.95 1012.96 1012.93 1012.90 1012.90 1012.98 1013.14 1013.39 1013.70 1014.06 1014.42 1014.77 1015.08 1015.35 1015.57 1015.74 1015.86
1002.01 1002.01 1002.22 1002.60 1003.11 1003.66 1004.20 1004.67 1005.06 1005.40 1005.74 1006.12 1006.59 1007.18 1007.86 1008.60 1009.32 1009.95 1010.45 1010.77 1010.94 1010.97 1010.95 1010.93 1010.97 1011.12 1011.38 1011.73 1012.12 1012.49 1012.80 1013.00 1013.08 1013.07 1013.00 1012.92 1012.87 1012.90 1013.03 1013.25 1013.55 1013.90 1014.26 1014.62 1014.94 1015.23 1015.49 1015.71 1015.90
1001.54 1001.75 1002.18 1002.80 1003.50 1004.17 1004.74 1005.14 1005.39 1005.51 1005.60 1005.74 1006.02 1006.46 1007.08 1007.84 1008.65 1009.43 1010.09 1010.58 1010.90 1011.05 1011.10 1011.12 1011.17 1011.31 1011.56 1011.88 1012.26 1012.62 1012.92 1013.11 1013.19 1013.16 1013.06 1012.95 1012.87 1012.86 1012.95 1013.15 1013.42 1013.75 1014.10 1014.44 1014.76 1015.06 1015.33 1015.58 1015.81
1001.19 1001.67 1002.40 1003.28 1004.19 1004.99 1005.58 1005.90 1005.96 1005.82 1005.60 1005.43 1005.42 1005.65 1006.14 1006.85 1007.71 1008.61 1009.44 1010.12 1010.62 1010.94 1011.12 1011.22 1011.32 1011.48 1011.71 1012.02 1012.37 1012.71 1012.99 1013.17 1013.23 1013.19 1013.08 1012.96 1012.86 1012.83 1012.90 1013.07 1013.32 1013.62 1013.94 1014.25 1014.54 1014.82 1015.08 1015.34 1015.59
1001.01 1001.79 1002.83 1003.99 1005.11 1006.04 1006.64 1006.87 1006.72 1006.30 1005.74 1005.22 1004.89 1004.84 1005.14 1005.74 1006.59 1007.57 1008.54 1009.40 1010.09 1010.59 1010.93 1011.15 1011.33 1011.52 1011.76 1012.06 1012.38 1012.70 1012.96 1013.13 1013.19 1013.15 1013.05 1012.92 1012.82 1012.79 1012.85 1013.00 1013.22 1013.49 1013.77 1014.04 1014.29 1014.53 1014.75 1014.99 1015.23
1000.99 1002.04 1003.36 1004.77 1006.09 1007.13 1007.76 1007.90 1007.59 1006.90 1006.03 1005.17 1004.50 1004.16 1004.22 1004.67 1005.45 1006.44 1007.49 1008.49 1009.35 1010.02 1010.51 1010.86 1011.14 1011.38 1011.64 1011.94 1012.25 1012.55 1012.79 1012.96 1013.02 1012.99 1012.91 1012.80 1012.72 1012.70 1012.76 1012.90 1013.10 1013.34 1013.58 1013.81 1014.02 1014.20 1014.38 1014.56 1014.78
1001.04 1002.31 1003.84 1005.45 1006.93 1008.07 1008.73 1008.83 1008.39 1007.52 1006.41 1005.28 1004.32 1003.71 1003.52 1003.79 1004.45 1005.39 1006.46 1007.53 1008.50 1009.30 1009.91 1010.38 1010.73 1011.04 1011.33 1011.63 1011.94 1012.22 1012.46 1012.63 1012.71 1012.71 1012.65 1012.58 1012.53 1012.53 1012.60 1012.75 1012.94 1013.16 1013.37 1013.56 1013.72 1013.85 1013.97 1014.11 1014.27
1001.08 1002.47 1004.12 1005.85 1007.42 1008.65 1009.36 1009.47 1009.01 1008.06 1006.83 1005.54 1004.39 1003.57 1003.19 1003.27 1003.79 1004.62 1005.63 1006.69 1007.69 1008.54 1009.23 1009.77 1010.18 1010.53 1010.85 1011.16 1011.46 1011.75 1011.99 1012.17 1012.27 1012.30 1012.28 1012.25 1012.24 1012.27 1012.37 1012.52 1012.72 1012.93 1013.12 1013.29 1013.42 1013.51 1013.59 1013.68 1013.79
1001.04 1002.44 1004.10 1005.85 1007.47 1008.75 1009.53 1009.72 1009.33 1008.43 1007.23 1005.92 1004.72 1003.80 1003.29 1003.22 1003.58 1004.26 1005.16 1006.13 1007.07 1007.91 1008.60 1009.15 1009.59 1009.95 1010.28 1010.59 1010.90 1011.18 1011.43 1011.62 1011.74 1011.80 1011.83 1011.84 1011.86 1011.93 1012.05 1012.22 1012.43 1012.64 1012.84 1013.00 1013.12 1013.20 1013.26 1013.31 1013.40
1000.90 1002.20 1003.78 1005.46 1007.05 1008.35 1009.21 1009.53 1009.31 1008.59 1007.56 1006.39 1005.27 1004.38 1003.82 1003.66 1003.88 1004.41 1005.14 1005.97 1006.79 1007.52 1008.15 1008.66 1009.07 1009.42 1009.73 1010.04 1010.34 1010.62 1010.86 1011.06 1011.20 1011.29 1011.33 1011.37 1011.43 1011.52 1011.66 1011.85 1012.07 1012.30 1012.52 1012.70 1012.84 1012.93 1013.00 1013.06 1013.14
1000.74 1001.87 1003.27 1004.81 1006.31 1007.61 1008.54 1009.02 1009.01 1008.57 1007.82 1006.90 1005.99 1005.23 1004.73 1004.53 1004.65 1005.03 1005.58 1006.22 1006.86 1007.46 1007.96 1008.38 1008.73 1009.03 1009.31 1009.59 1009.86 1010.13 1010.37 1010.56 1010.70 1010.79 1010.85 1010.90 1010.97 1011.07 1011.22 1011.43 1011.67 1011.92 1012.17 1012.39 1012.57 1012.71 1012.82 1012.91 1013.01
Thickness
5844 5844 5840 5829 5806 5794 5790 5797 5804 5801 5802 5810 5811 5803 5789 5781 5770 5758 5783 5795 5794 5789 5785 5781 5780 5779 5779 5779 5778 5778 5777 5776 5776 5775 5775 5774 5774 5774 5774 5773 5772 5772 5772 5771 5770 5769 5768 5768 5767
5854 5851 5840 5823 5800 5785 5785 5801 5800 5803 5810 5815 5811 5803 5791 5783 5788 5784 5789 5794 5795 5791 5786 5781 5779 5778 5778 5777 5777 5776 5776 5775 5774 5774 5773 5773 5773 5773 5772 5772 5771 5771 5770 5770 5769 5768 5767 5766 5765
5856 5855 5834 5823 5809 5794 5790 5804 5807 5814 5819 5814 5803 5800 5790 5783 5788 5788 5793 5797 5796 5791 5785 5780 5779 5778 5777 5776 5775 5775 5774 5774 5773 5772 5772 5772 5771 5771 5771 5770 5769 5769 5769 5768 5767 5767 5766 5765 5764
5855 5849 5838 5827 5809 5812 5812 5814 5818 5814 5815 5816 5805 5791 5790 5796 5795 5796 5799 5798 5794 5790 5785 5780 5778 5777 5777 5776 5775 5774 5773 5773 5772 5772 5771 5770 5770 5769 5769 5768 5768 5768 5767 5767 5766 5766 5765 5764 5764
5858 5840 5827 5821 5815 5821 5827 5828 5823 5812 5808 5807 5799 5782 5781 5796 5802 5802 5800 5798 5794 5791 5786 5780 5778 5777 5777 5776 5775 5774 5773 5772 5771 5771 5770 5769 5768 5767 5767 5767 5767 5767 5766 5765 5765 5765 5764 5764 5763
5845 5846 5825 5813 5815 5825 5831 5834 5826 5814 5809 5806 5797 5783 5779 5797 5799 5800 5801 5798 5796 5791 5786 5780 5778 5777 5776 5776 5775 5774 5772 5771 5770 5770 5769 5768 5767 5767 5766 5766 5766 5766 5765 5764 5764 5763 5764 5764 5762
5846 5842 5832 5826 5819 5820 5830 5837 5827 5816 5809 5809 5805 5785 5782 5792 5798 5801 5800 5798 5796 5792 5787 5782 5779 5777 5776 5775 5774 5774 5773 5772 5770 5769 5769 5768 5767 5766 5766 5765 5765 5764 5764 5763 5763 5762 5763 5763 5762
5874 5855 5839 5833 5822 5820 5836 5837 5833 5822 5813 5821 5815 5789 5780 5791 5801 5801 5799 5795 5793 5791 5789 5785 5783 5780 5777 5775 5774 5774 5773 5772 5771 5770 5769 5768 5767 5766 5766 5765 5764 5764 5763 5762 5762 5761 5761 5761 5761
5886 5851 5835 5837 5830 5829 5840 5833 5833 5835 5823 5819 5817 5806 5800 5803 5803 5797 5792 5789 5788 5788 5788 5788 5786 5784 5782 5780 5777 5775 5773 5773 5772 5771 5770 5769 5768 5768 5766 5766 5765 5764 5764 5763 5762 5761 5760 5760 5760
5878 5846 5846 5856 5852 5843 5842 5837 5833 5826 5813 5807 5806 5807 5808 5805 5800 5793 5787 5784 5784 5784 5787 5788 5787 5786 5784 5783 5780 5778 5776 5774 5773 5772 5771 5770 5770 5769 5768 5766 5766 5765 5764 5763 5762 5761 5760 5760 5760
5876 5858 5862 5865 5864 5857 5846 5841 5841 5824 5808 5806 5802 5802 5805 5803 5798 5792 5789 5788 5786 5788 5788 5788 5788 5786 5785 5784 5782 5781 5779 5776 5775 5774 5773 5772 5771 5770 5769 5767 5766 5766 5765 5764 5763 5762 5761 5762 5761
5874 5872 5872 5868 5869 5860 5850 5845 5838 5829 5821 5824 5818 5813 5808 5802 5797 5793 5791 5790 5789 5788 5788 5788 5788 5786 5785 5784 5784 5782 5780 5777 5776 5774 5774 5773 5772 5771 5771 5769 5769 5768 5768 5766 5765 5764 5763 5764 5764
5871 5870 5875 5875 5870 5864 5855 5844 5837 5831 5834 5832 5825 5817 5810 5805 5802 5799 5797 5794 5791 5789 5789 5788 5787 5784 5784 5783 5783 5783 5781 5779 5778 5776 5775 5774 5773 5772 5771 5770 5770 5770 5769 5768 5766 5766 5766 5764 5764
5874 5875 5873 5873 5869 5864 5849 5841 5837 5831 5837 5830 5823 5817 5814 5809 5805 5800 5797 5794 5792 5790 5789 5789 5788 5786 5784 5784 5783 5784 5783 5781 5780 5778 5776 5775 5773 5772 5771 5770 5770 5770 5770 5769 5767 5767 5765 5764 5764
5879 5866 5862 5867 5869 5863 5851 5826 5827 5837 5838 5828 5824 5820 5816 5813 5809 5803 5800 5797 5795 5793 5792 5790 5789 5788 5785 5785 5785 5785 5784 5783 5781 5779 5777 5775 5773 5772 5772 5770 5770 5770 5769 5769 5768 5767 5766 5765 5764
5866 5854 5837 5856 5868 5865 5842 5811 5832 5845 5837 5828 5826 5822 5817 5814 5813 5810 5807 5803 5800 5797 5794 5793 5794 5790 5787 5786 5786 5786 5785 5784 5782 5779 5777 5776 5774 5773 5772 5770 5769 5769 5769 5768 5767 5766 5764 5763 5761
5850 5836 5834 5849 5870 5865 5847 5825 5840 5850 5840 5830 5828 5825 5819 5815 5815 5814 5812 5808 5804 5801 5797 5794 5794 5791 5789 5788 5787 5786 5785 5783 5782 5780 5778 5776 5775 5773 5772 5770 5769 5768 5768 5767 5766 5765 5763 5760 5759
5839 5840 5840 5844 5865 5865 5849 5840 5844 5851 5844 5836 5832 5828 5823 5818 5817 5818 5817 5813 5809 5804 5800 5797 5795 5792 5791 5789 5787 5785 5784 5783 5782 5780 5778 5776 5775 5774 5772 5770 5768 5768 5767 5765 5765 5762 5762 5760 5759
5862 5852 5843 5852 5870 5863 5851 5844 5847 5852 5850 5841 5835 5831 5826 5824 5825 5823 5820 5817 5811 5806 5802 5799 5795 5793 5791 5788 5785 5782 5781 5782 5781 5781 5779 5777 5775 5774 5772 5770 5768 5767 5765 5764 5764 5761 5760 5759 5759
5866 5855 5852 5856 5869 5863 5854 5847 5853 5855 5853 5849 5842 5836 5832 5829 5826 5823 5821 5818 5813 5807 5804 5800 5797 5795 5793 5790 5788 5786 5784 5783 5782 5781 5779 5778 5776 5774 5773 5770 5768 5767 5765 5763 5762 5761 5758 5758 5759
5863 5861 5859 5853 5861 5863 5851 5836 5840 5851 5859 5856 5852 5847 5842 5836 5829 5825 5823 5820 5816 5810 5807 5805 5800 5797 5795 5793 5791 5789 5786 5783 5781 5779 5778 5778 5776 5774 5773 5770 5768 5766 5765 5762 5761 5760 5757 5753 5756
5854 5874 5872 5863 5848 5839 5845 5812 5824 5841 5845 5849 5850 5847 5842 5842 5837 5831 5826 5822 5819 5815 5812 5808 5803 5800 5797 5795 5791 5787 5782 5778 5779 5779 5778 5778 5777 5775 5772 5770 5768 5766 5764 5762 5760 5760 5758 5755 5751
5867 5881 5871 5862 5848 5836 5841 5824 5818 5834 5830 5837 5844 5850 5849 5847 5843 5836 5831 5828 5825 5821 5816 5810 5805 5801 5799 5796 5792 5788 5785 5783 5782 5780 5778 5776 5776 5775 5773 5770 5767 5764 5763 5761 5760 5758 5757 5755 5752
5878 5870 5862 5857 5844 5816 5832 5829 5815 5827 5830 5835 5843 5851 5852 5851 5846 5841 5837 5832 5827 5824 5818 5812 5805 5800 5798 5795 5792 5788 5785 5782 5780 5778 5775 5775 5775 5774 5773 5771 5767 5764 5762 5760 5758 5757 5755 5753 5752
5865 5842 5819 5810 5809 5808 5839 5830 5824 5846 5855 5851 5849 5855 5857 5854 5848 5842 5836 5831 5826 5822 5818 5812 5804 5799 5797 5795 5792 5789 5786 5783 5780 5777 5775 5774 5773 5772 5771 5770 5766 5763 5761 5759 5757 5755 5753 5752 5750
5855 5845 5816 5796 5799 5806 5822 5816 5830 5860 5865 5866 5864 5863 5860 5854 5850 5845 5839 5833 5827 5823 5818 5813 5805 5799 5797 5794 5791 5789 5787 5784 5782 5779 5777 5775 5773 5772 5771 5768 5765 5762 5760 5758 5756 5754 5753 5751 5749
5849 5848 5856 5833 5822 5805 5808 5811 5833 5851 5858 5862 5860 5857 5856 5854 5851 5846 5842 5836 5829 5822 5816 5811 5805 5800 5797 5795 5792 5789 5786 5783 5781 5779 5777 5775 5773 5772 5769 5766 5763 5761 5758 5756 5755 5752 5750 5749 5747
5862 5859 5848 5829 5803 5793 5803 5802 5806 5823 5837 5848 5851 5851 5852 5853 5850 5846 5841 5836 5829 5823 5818 5812 5807 5801 5798 5795 5792 5789 5785 5783 5781 5778 5774 5772 5771 5769 5766 5764 5761 5758 5756 5754 5752 5750 5749 5746 5745
5848 5847 5844 5837 5832 5805 5788 5791 5827 5829 5839 5844 5847 5850 5849 5849 5848 5844 5838 5836 5831 5824 5819 5812 5806 5801 5797 5794 5791 5788 5784 5782 5779 5775 5772 5770 5768 5766 5763 5761 5758 5756 5753 5751 5749 5747 5745 5743 5741
5858 5851 5844 5822 5819 5826 5810 5801 5845 5847 5850 5849 5848 5849 5848 5848 5847 5843 5838 5833 5829 5823 5818 5812 5807 5802 5798 5794 5790 5786 5783 5780 5776 5772 5770 5768 5765 5762 5760 5758 5755 5752 5750 5748 5745 5743 5742 5739 5737